Regional Weather Roundup
Issued by NWS Charleston, SC

Current Version | Previous Version | Graphics & Text | Print | Product List | Glossary On
Versions: 1 2 3 4 5 6 7 8 9 10 11 12 13 14 15 16 17 18 19 20 21 22 23 24 25 26 27 28 29 30 31 32 33 34 35 36 37 38 39 40 41 42 43 44 45 46 47 48 49 50
000
ASUS42 KCHS 211310
RWRCHS

REGIONAL WEATHER ROUNDUP
NATIONAL WEATHER SERVICE CHARLESTON SC
900 AM EDT SUN SEP 21 2014

NOTE: "FAIR" INDICATES FEW OR NO CLOUDS BELOW 12,000 FEET WITH NO
SIGNIFICANT WEATHER AND/OR OBSTRUCTIONS TO VISIBILITY.

NOT ALL STATIONS ARE QUALITY CONTROLLED BY THE NATIONAL
WEATHER SERVICE. USE DATA WITH CAUTION...ESPECIALLY
DEWPOINT OBSERVATIONS.

SCZ027-030-031-034>040-042>050-211400-
...SOUTH CAROLINA...

CITY           SKY/WX    TMP DP  RH WIND       PRES   REMARKS
N CHARLESTON   MOSUNNY   70  62  76 NW7       29.96R
WATERFRONT PRK NOT AVBL
FORT JOHNSON   NOT AVBL
MOUNT PLEASANT FAIR      72  64  78 NW8       29.96R
JOHNS ISLAND   SUNNY     72  72 100 CALM      29.97R
PINOPOLIS        N/A     72  64  78 NW9       29.88R
MONCKS CORNER    N/A     70  66  88 CALM      29.96R
SUMMERVILLE    FAIR      68  63  83 NW6       29.98R
BEAUFORT MCAS  SUNNY     70  61  73 S6        29.99R
BEAUFORT ARPT  FAIR      70  63  78 NW9       29.98S
HILTON HEAD IS SUNNY     72  64  78 CALM      30.01R
GEORGETOWN     NOT AVBL
WALTERBORO     SUNNY     68  64  88 NW3       29.99R
ORANGEBURG     SUNNY     65  60  84 NW7       29.99R
BARNWELL       FAIR      66  61  82 CALM      30.01R
AIKEN          FAIR      68  66  94 W3        30.04R
MANNING        FAIR      68  61  77 NW5       29.97R
KINGSTREE      NOT AVBL
COLUMBIA       MOSUNNY   67  62  84 CALM      29.98R
SUMTER         SUNNY     68  60  75 NW9       29.95R
FLORENCE       SUNNY     69  61  75 NW8       29.94R
MYRTLE BEACH   PTSUNNY   68  64  88 NW9       29.90R
N MYRTLE BEACH CLOUDY    69  66  90 NW7       29.89R

$$

GAZ063-065-086>088-099>101-113>116-118-119-134-136>141-150-211400-
...GEORGIA...

CITY           SKY/WX    TMP DP  RH WIND       PRES   REMARKS
SAVANNAH ARPT  MOSUNNY   69  60  73 NW3       30.01R
HUNTER AAF     SUNNY     69  62  80 W3        29.99R
FORT STEWART   SUNNY     69  61  76 NW5       30.00R
STATESBORO     NOT AVBL
SYLVANIA       SUNNY     68  66  94 NW3       30.02R
CLAXTON        FAIR      66  66 100 CALM      30.02R
THOMSON        SUNNY     66  66 100 CALM      30.07R
AUGUSTA-BUSH   SUNNY     68  64  87 CALM      30.01R
AUGUSTA-DANIEL SUNNY     70  63  78 NW7       30.02R
SWAINSBORO     FAIR      66  66 100 NW5       30.04R
VIDALIA        SUNNY     68  63  83 CALM      30.04R
ALMA           SUNNY     69  63  81 NW3       30.02R
WAYCROSS       NOT AVBL
JESUP          FAIR      72  64  78 CALM      30.02R
BRUNSWICK      SUNNY     68  63  83 NW3       30.02R
SAINT SIMONS   SUNNY     69  62  78 NW6       30.01R

$$

SCZ027-028-034-036>038-045-046-048>050-GAZ119-141-211400-
...LAKE AND SUPPLEMENTAL COASTAL OBSERVATIONS...

STATION/POSITION TIME  TEMP    WIND        PRES    WAVE   SWELL
                       AIR SEA DIR/SP/G            HT/PER HT/PER/DIR
                 (UTC) (F)     (DEG/KT/KT) (MB)    (FT/S) (FT/S/D)
UPR LAKE MARION  NOT AVBL
WINYAH BAY       1200   68     310/  7     1012.0R
LAKE MURRAY      1200   68      CALM  /  3 1014.9R
ACE BASIN NERRS  1200   64        CALM     1014.0S
FORT PULASKI     1300   69     310/  9/ 11 1015.8S
SAPELO ISLAND    1200   68     310/  7     1016.0R

$$

ANZ835-935-AMZ111-154-330-350-352-354-374-450-454-472-211400-
...C-MAN AND BUOY OBSERVATIONS...

STATION/POSITION TIME  TEMP    WIND        PRES    WAVE   SWELL
                       AIR SEA DIR/SP/G            HT/PER HT/PER/DIR
                 (UTC) (F)     (DEG/KT/KT) (MB)    (FT/S) (FT/S/D)
FOLLY BEACH CMAN 1200   67     300/  8/ 12 1014.4R
BUOY 41004       1300   75 81  320/ 16/ 19 1012.7R   6/ 7   3/ 9
BUOY 41008       1300   76 83  340/ 12/ 14 1015.3R   4/ 7   3/ 70/ 7
5E ST. MARYS GA  1300      83                N/A     4/ 9
FRYING PAN BUOY  NOT AVBL
BUOY 41025       1300   76     350/ 19/ 21 1005.0R   9/ 9   7/ 80/ 9
CAPE LOOKOUT NC  1200   72     340/ 16/ 19 1007.3R
BUOY 41002       1211   80 82  240/ 21/ 25 1008.7S  10/ 8   5/320/13
BUOY 41010       1300   81 84  300/ 12/ 17 1014.8R   4/ 9   3/ 9
BUOY 41012       NOT AVBL
ST AUGUSTINE FL  1300   73     330/  6/  8 1017.1R
CAPERS NEARSHORE 1200   72     320/ 16/ 19   N/A
FRIPP NEARSHORE  NOT AVBL


$$



USA.gov is the U.S. government's official web portal to all federal, state and local government web resources and services.